World > North America > United States > Minnesota

Hourly Zim, MN Regional Weather

Feedback E-mail the Weather

Quick WX

Zim, MN Weather Maps

°F °C°F °C
Zim Weather Map
UTC Time: 7/1/2022, 22:30
Your Time:

Zim, MN Regional Weather

Expires:202207012300;;516756
ASUS43 KMPX 012210
RWRMN 
WEATHER ROUNDUP FOR MINNESOTA
NATIONAL WEATHER SERVICE TWIN CITIES/CHANHASSEN MN
500 PM CDT FRI JUL 01 2022


NOTE: "FAIR" INDICATES FEW OR NO CLOUDS BELOW 12,000 FEET WITH NO
SIGNIFICANT WEATHER AND/OR OBSTRUCTIONS TO VISIBILITY. N/A MEANS
CURRENT SKY AND/OR WEATHER CONDITIONS ARE NOT AVAILABLE.


MNZ012-019>021-037-012300-
   Northeast Minnesota   
  
CITY           SKY/WX    TMP DP  RH WIND       PRES   REMARKS
DULUTH         MOSUNNY   73  44  35 NW17G32   29.94R                  
ELY              N/A     72  39  30 W15G23    29.90S                  
HIBBING        MOSUNNY   71  44  37 W15G28    29.94S                  
EVELETH        MOSUNNY   72  45  37 W14G23    29.95S                  
DULUTH HARBOR  MOSUNNY   77  46  33 NW20G30   29.91S                  
TWO HARBORS    MOSUNNY   73  43  33 W10       29.90S                  
G MARAIS ARPRT SUNNY     70  41  35 W10G21    29.85S                  
$$

SKY/WX - Weather  TMP - Temperature  DP - Dew Point  RH - Humidity
WIND - Wind Direction/Speed PRES - Barometric Pressure VSB - Visibility
WCI - Wind Chill Index E13G22 Wind - East Wind 13 mph/Gusts of 22 mph

Trending Headlines

Zim Radar Loop


Zim Quick Facts


National Two Day Weather Forecast


E-mail the Zim Weather Forecast

Voice your opinion or tell us about page issues...